Dati Storici

Data ora Umidita' aria (%) Temperatura aria (°C) Rad globale (W/m²) Gonioanemometro (°) Tacoanemometro (m/s) Pioggia (mm)
14-06-2020 18:50 72.5 % 22.139 -67.571 1.091 0 0
14-06-2020 18:40 71.7 % 22.735 -65.521 1.381 0 0
14-06-2020 18:30 72.3 % 22.773 -68.36 1.373 0 0
14-06-2020 18:20 72.4 % 22.879 -68.148 0.585 0 0
14-06-2020 18:10 70.2 % 22.819 -74.794 1.528 0 0
14-06-2020 18:00 70.5 % 23.308 -68.333 1.615 0 0
14-06-2020 17:50 70.3 % 23.062 -63.162 2.104 0 0
14-06-2020 17:40 70.6 % 22.633 -64.547 1.366 0 0
14-06-2020 17:30 70.5 % 23.511 -66.971 1.264 0 0
14-06-2020 17:20 71 % 23.882 -71.993 2.195 0 0
14-06-2020 17:10 72.3 % 22.868 -73.74 -0.02 0 0
14-06-2020 17:00 72.7 % 22.51 -66.206 1.511 0 0
14-06-2020 16:50 71.6 % 22.669 -53.517 0.865 0 0
14-06-2020 16:40 69.6 % 23.072 -52.571 0.233 0 0
14-06-2020 16:30 69.8 % 23.367 -70.831 0.564 0 0
14-06-2020 16:20 69.3 % 23.263 -61.464 1.273 0 0
14-06-2020 16:10 70.8 % 22.907 -60.923 3.702 0 0
14-06-2020 16:00 69 % 23.003 -60.627 5.153 0 0
14-06-2020 15:50 70.9 % 23.424 -54.035 2.052 0 0
14-06-2020 15:40 70.1 % 23.433 -64.158 1.932 0 0

I dati sono presentati in modo automatico a scopo informativo. In seguito a verifica i dati possono subire modifiche o essere invalidati e non riportati negli archivi definitivi.